When you browse on this site, cookies collect data to enhance your experience and personalize the content and advertising you see.
Visit our Privacy Policy to learn more. By continuing to use the site, you agree to this use of cookies and data.
EN

Hourly Weather Tarnopol

Today, 4 July, Saturday

Time Temperature Precipitation Wind Pressure Humidity
00:00 +17°C° 0 mm 2 mps 747 mmHg 94%
01:00 +16°C° 0 mm 2 mps 747 mmHg 94%
02:00 +16°C° 0 mm 2 mps 747 mmHg 95%
03:00 +15°C° 0 mm 2 mps 747 mmHg 95%
04:00 +15°C° 0 mm 2 mps 747 mmHg 95%
05:00 +15°C° 0 mm 2 mps 747 mmHg 95%
06:00 +16°C° 0 mm 2 mps 748 mmHg 89%
07:00 +18°C° 0 mm 2 mps 748 mmHg 83%
08:00 +19°C° 0 mm 2 mps 748 mmHg 78%
09:00 +20°C° 0 mm 2 mps 749 mmHg 72%
10:00 +23°C° 0 mm 2 mps 749 mmHg 66%
11:00 +24°C° 0 mm 2 mps 749 mmHg 60%
12:00 +24°C° 0 mm 2 mps 749 mmHg 58%
13:00 +25°C° 0 mm 2 mps 748 mmHg 57%
14:00 +25°C° 0 mm 2 mps 748 mmHg 55%
15:00 +25°C° 0 mm 2 mps 748 mmHg 57%
16:00 +25°C° 0 mm 2 mps 748 mmHg 59%
17:00 +25°C° 0 mm 2 mps 747 mmHg 61%
18:00 +24°C° 0 mm 2 mps 747 mmHg 67%
19:00 +23°C° 0 mm 2 mps 747 mmHg 72%
20:00 +21°C° 0 mm 1 mps 747 mmHg 78%
21:00 +20°C° 0 mm 1 mps 747 mmHg 80%
22:00 +18°C° 0 mm 2 mps 747 mmHg 82%
23:00 +17°C° 0 mm 2 mps 747 mmHg 84%

Tomorrow, 5 July, Sunday

Time Temperature Precipitation Wind Pressure Humidity
00:00 +17°C° 0 mm 2 mps 747 mmHg 85%
01:00 +17°C° 0 mm 2 mps 747 mmHg 86%
02:00 +16°C° 0 mm 2 mps 747 mmHg 87%
03:00 +16°C° 0 mm 2 mps 747 mmHg 88%
04:00 +16°C° 0 mm 2 mps 747 mmHg 88%
05:00 +16°C° 0 mm 2 mps 747 mmHg 89%
06:00 +18°C° 0 mm 3 mps 747 mmHg 84%
07:00 +19°C° 0 mm 3 mps 747 mmHg 79%
08:00 +21°C° 0 mm 4 mps 747 mmHg 74%
09:00 +22°C° 0 mm 4 mps 747 mmHg 69%
10:00 +23°C° 0 mm 4 mps 747 mmHg 65%
11:00 +25°C° 0 mm 5 mps 747 mmHg 61%
12:00 +26°C° 0 mm 5 mps 747 mmHg 61%
13:00 +26°C° 0 mm 5 mps 746 mmHg 62%
14:00 +27°C° 0 mm 5 mps 746 mmHg 62%
15:00 +26°C° 0.2 mm 5 mps 746 mmHg 64%
16:00 +26°C° 0.2 mm 5 mps 746 mmHg 66%
17:00 +26°C° 0.2 mm 5 mps 745 mmHg 68%
18:00 +25°C° 0 mm 4 mps 745 mmHg 73%
19:00 +24°C° 0 mm 3 mps 745 mmHg 78%
20:00 +22°C° 0 mm 3 mps 745 mmHg 83%
21:00 +21°C° 0 mm 3 mps 745 mmHg 84%
22:00 +21°C° 0 mm 3 mps 745 mmHg 86%
23:00 +20°C° 0 mm 3 mps 745 mmHg 88%

Day after tomorrow, 6 July, Monday

Time Temperature Precipitation Wind Pressure Humidity
00:00 +20°C° 0 mm 3 mps 744 mmHg 89%
01:00 +19°C° 0 mm 3 mps 744 mmHg 90%
02:00 +19°C° 0 mm 3 mps 744 mmHg 91%
03:00 +19°C° 0 mm 3 mps 744 mmHg 92%
04:00 +19°C° 0 mm 3 mps 743 mmHg 92%
05:00 +19°C° 0 mm 3 mps 743 mmHg 93%
06:00 +20°C° 0 mm 3 mps 743 mmHg 89%
07:00 +21°C° 0 mm 4 mps 743 mmHg 84%
08:00 +23°C° 0 mm 4 mps 743 mmHg 80%
09:00 +23°C° 0.2 mm 4 mps 743 mmHg 77%
10:00 +25°C° 0.2 mm 5 mps 743 mmHg 75%
11:00 +26°C° 0.2 mm 5 mps 742 mmHg 73%
12:00 +26°C° 0.1 mm 5 mps 742 mmHg 69%
13:00 +27°C° 0.1 mm 5 mps 742 mmHg 66%
14:00 +28°C° 0.1 mm 5 mps 742 mmHg 62%
15:00 +26°C° 0.4 mm 5 mps 742 mmHg 68%
16:00 +25°C° 0.4 mm 5 mps 742 mmHg 74%
17:00 +23°C° 0.4 mm 4 mps 742 mmHg 80%
18:00 +22°C° 0 mm 4 mps 742 mmHg 81%
19:00 +21°C° 0 mm 3 mps 742 mmHg 82%
20:00 +20°C° 0 mm 2 mps 742 mmHg 84%
21:00 +19°C° 0 mm 3 mps 742 mmHg 82%
22:00 +18°C° 0 mm 3 mps 742 mmHg 81%
23:00 +18°C° 0 mm 3 mps 743 mmHg 79%

7 July, Tuesday

Time Temperature Precipitation Wind Pressure Humidity
00:00 +16°C° 0 mm 3 mps 743 mmHg 83%
01:00 +14°C° 0 mm 3 mps 743 mmHg 86%
02:00 +13°C° 0 mm 3 mps 743 mmHg 89%
03:00 +13°C° 0 mm 3 mps 744 mmHg 86%
04:00 +13°C° 0 mm 4 mps 744 mmHg 83%
05:00 +13°C° 0 mm 4 mps 744 mmHg 81%
06:00 +14°C° 0 mm 4 mps 745 mmHg 78%
07:00 +15°C° 0 mm 5 mps 745 mmHg 75%
08:00 +15°C° 0 mm 5 mps 745 mmHg 72%
09:00 +16°C° 0 mm 5 mps 746 mmHg 69%
10:00 +17°C° 0 mm 5 mps 746 mmHg 66%
11:00 +19°C° 0 mm 5 mps 746 mmHg 63%
12:00 +19°C° 0 mm 5 mps 746 mmHg 61%
13:00 +20°C° 0 mm 5 mps 746 mmHg 59%
14:00 +20°C° 0 mm 5 mps 746 mmHg 57%
15:00 +20°C° 0.2 mm 5 mps 746 mmHg 59%
16:00 +20°C° 0.2 mm 5 mps 746 mmHg 61%
17:00 +19°C° 0.2 mm 5 mps 747 mmHg 64%
18:00 +18°C° 0.1 mm 4 mps 747 mmHg 69%
19:00 +17°C° 0.1 mm 3 mps 747 mmHg 74%
20:00 +15°C° 0.1 mm 2 mps 747 mmHg 79%
21:00 +14°C° 0 mm 2 mps 747 mmHg 81%
22:00 +13°C° 0 mm 2 mps 748 mmHg 83%
23:00 +12°C° 0 mm 1 mps 748 mmHg 85%

8 July, Wednesday

Time Temperature Precipitation Wind Pressure Humidity
00:00 +10°C° 0 mm 2 mps 748 mmHg 86%
01:00 +10°C° 0 mm 2 mps 748 mmHg 87%
02:00 +10°C° 0 mm 2 mps 748 mmHg 88%
03:00 +9°C° 0 mm 2 mps 748 mmHg 88%
04:00 +9°C° 0 mm 2 mps 748 mmHg 89%
05:00 +9°C° 0 mm 2 mps 749 mmHg 89%
06:00 +11°C° 0 mm 3 mps 749 mmHg 82%
07:00 +13°C° 0 mm 3 mps 749 mmHg 76%
08:00 +15°C° 0 mm 4 mps 749 mmHg 69%
09:00 +16°C° 0.2 mm 5 mps 749 mmHg 66%
10:00 +17°C° 0.2 mm 5 mps 749 mmHg 63%
11:00 +19°C° 0.2 mm 6 mps 748 mmHg 59%
12:00 +19°C° 0.6 mm 6 mps 748 mmHg 61%
13:00 +19°C° 0.6 mm 6 mps 748 mmHg 63%
14:00 +19°C° 0.6 mm 6 mps 748 mmHg 64%
15:00 +19°C° 0.2 mm 6 mps 748 mmHg 63%
16:00 +17°C° 0.2 mm 6 mps 748 mmHg 62%
17:00 +17°C° 0.2 mm 6 mps 748 mmHg 61%
18:00 +16°C° 0.2 mm 5 mps 748 mmHg 68%
19:00 +15°C° 0.2 mm 4 mps 749 mmHg 75%
20:00 +14°C° 0.2 mm 3 mps 749 mmHg 82%
21:00 +14°C° 0 mm 2 mps 749 mmHg 85%
22:00 +13°C° 0 mm 2 mps 750 mmHg 88%
23:00 +12°C° 0 mm 2 mps 750 mmHg 92%

9 July, Thursday

Time Temperature Precipitation Wind Pressure Humidity
00:00 +10°C° 0 mm 2 mps 750 mmHg 92%
01:00 +10°C° 0 mm 2 mps 750 mmHg 93%
02:00 +10°C° 0 mm 2 mps 751 mmHg 93%
03:00 +10°C° 0 mm 2 mps 751 mmHg 93%
04:00 +9°C° 0 mm 2 mps 751 mmHg 93%
05:00 +9°C° 0 mm 2 mps 751 mmHg 93%
06:00 +12°C° 0 mm 2 mps 751 mmHg 87%
07:00 +14°C° 0 mm 2 mps 751 mmHg 80%
08:00 +16°C° 0 mm 2 mps 750 mmHg 73%
09:00 +17°C° 0 mm 3 mps 750 mmHg 67%
10:00 +19°C° 0 mm 3 mps 750 mmHg 62%
11:00 +20°C° 0 mm 3 mps 750 mmHg 56%
12:00 +21°C° 0 mm 4 mps 750 mmHg 56%
13:00 +21°C° 0 mm 4 mps 749 mmHg 55%
14:00 +22°C° 0 mm 4 mps 749 mmHg 55%
15:00 +22°C° 0.1 mm 4 mps 748 mmHg 58%
16:00 +22°C° 0.1 mm 4 mps 748 mmHg 62%
17:00 +22°C° 0.1 mm 4 mps 748 mmHg 65%
18:00 +21°C° 0.1 mm 4 mps 747 mmHg 71%
19:00 +20°C° 0.1 mm 3 mps 747 mmHg 77%
20:00 +18°C° 0.1 mm 3 mps 747 mmHg 82%
21:00 +18°C° 0.2 mm 3 mps 747 mmHg 85%
22:00 +18°C° 0.2 mm 3 mps 747 mmHg 87%
23:00 +18°C° 0.2 mm 3 mps 747 mmHg 89%
Show more